Location: Sommers-Bausch Observatory
(40.0037°N, 105.2635°W)
Time: 07:32:25
(UTC-07:00)

Amateur Radio Satellites - All Passes

Search period start: 05 December 2016 07:02
Search period end: 06 December 2016 07:02
Location: Sommers-Bausch Observatory, 40.0037°N, 105.2635°W

Satellite Date Start Highest point End Downlink Frequencies (MHz)
Time Altitude Azimuth
CANX-2 05 Dec 07:05:27 07:09:08 29° 96° (E) 07:12:49 2200.000
AAUSAT CUBESAT 2 05 Dec 07:18:17 07:19:31 11° 90° (E) 07:20:45 437.432
LilacSat-2 05 Dec 07:20:17 07:22:40 16° 293° (WNW) 07:25:02 437.200
STRAND 1 05 Dec 07:22:34 07:27:07 32° 263° (W) 07:31:41 437.568
Cosmos 2491 05 Dec 07:22:57 07:31:45 78° 278° (W) 07:40:34 435.465 / 435.565
CUTE-I 05 Dec 07:27:44 07:32:15 29° 294° (WNW) 07:36:45 437.470
NOAA 18 05 Dec 07:27:46 07:33:03 47° 291° (WNW) 07:38:19 137.9125
PRISM 05 Dec 07:30:56 07:34:01 21° 67° (ENE) 07:37:07 437.425
SEEDS 05 Dec 07:32:55 07:36:44 34° 97° (E) 07:40:33 437.485
UWE-3 05 Dec 07:33:32 07:35:19 12° 90° (E) 07:37:05 435.000/436.395/437.385
COMPASS 1 05 Dec 07:45:21 07:49:04 31° 97° (E) 07:52:46 437.405
AIST 1 05 Dec 07:51:32 07:55:08 25° 271° (W) 07:58:42
Cubesat XI-IV 05 Dec 07:54:09 07:57:40 18° 298° (WNW) 08:01:09 437.490
NOAA 15 05 Dec 07:54:58 07:58:01 16° 299° (WNW) 08:01:04 137.62
CINEMA 3 05 Dec 07:58:49 08:03:29 50° 287° (WNW) 08:07:57 145.822/145.860
HO-68 05 Dec 08:02:52 08:10:08 86° 108° (ESE) 08:17:20 435.675
DOVE 4 05 Dec 08:12:20 08:14:43 13° 299° (WNW) 08:17:05 437.250
ZACube-1 05 Dec 08:15:34 08:18:54 22° 94° (E) 08:22:11 437.345
TIGRISAT 05 Dec 08:16:04 08:18:52 16° 64° (ENE) 08:21:39 435.000
AIST 2 05 Dec 08:16:29 08:20:34 86° 120° (ESE) 08:24:45 435.215
ANTELSAT 05 Dec 08:17:01 08:20:03 17° 65° (ENE) 08:23:03 437.575/2403.000
CUTE 1.7 + AOD 2 05 Dec 08:23:12 08:27:09 40° 288° (WNW) 08:31:06 437.475
CUBEBUG 2 05 Dec 08:23:16 08:27:42 76° 102° (ESE) 08:31:58 437.445
FUNcube-1 05 Dec 08:23:42 08:27:13 25° 95° (E) 08:30:39 145.935
CANX-2 05 Dec 08:41:32 08:44:50 23° 292° (WNW) 08:48:08 2200.000
Cosmos 2504 05 Dec 08:43:07 08:50:01 27° 279° (W) 08:56:40 435.465 / 435.565
RS-15 05 Dec 08:43:37 08:55:14 60° 310° (NW) 09:07:26 29.354- 29.394
JAS-2 05 Dec 08:49:36 08:51:16 11° 59° (ENE) 08:52:55 435.910
AAUSAT CUBESAT 2 05 Dec 08:51:15 08:55:18 55° 286° (WNW) 08:59:22 437.432
Oscar 11 05 Dec 08:55:02 08:59:18 57° 100° (E) 09:03:31 145.826/435.025
PRISM 05 Dec 09:05:35 09:09:08 29° 263° (W) 09:12:43 437.425
UWE-3 05 Dec 09:07:55 09:12:08 52° 286° (WNW) 09:16:13 435.000/436.395/437.385
SEEDS 05 Dec 09:09:12 09:12:11 19° 293° (WNW) 09:15:10 437.485
UNISAT 6 05 Dec 09:20:04 09:24:45 77° 76° (ENE) 09:29:26 437.425
COMPASS 1 05 Dec 09:21:19 09:24:25 21° 292° (WNW) 09:27:30 437.405
Cosmos 2491 05 Dec 09:25:22 09:30:08 15° 300° (WNW) 09:34:56 435.465 / 435.565
GONETS M04 05 Dec 09:42:06 09:43:55 11° 56° (NE) 09:45:44
CUSAT 1 05 Dec 09:43:35 09:46:50 50° 280° (W) 09:49:36 437.405
TIGRISAT 05 Dec 09:50:29 09:55:05 55° 260° (W) 09:59:41 435.000
HUMSAT D 05 Dec 09:51:05 09:54:59 43° 99° (E) 09:58:52 437.325/437.525
ZACube-1 05 Dec 09:51:33 09:55:11 28° 290° (WNW) 09:58:45 437.345
ANTELSAT 05 Dec 09:51:47 09:56:20 50° 260° (W) 10:00:53 437.575/2403.000
HO-68 05 Dec 09:52:13 09:56:56 19° 304° (NW) 10:01:38 435.675
Cosmos 2499 05 Dec 09:53:14 09:57:40 15° 59° (ENE) 10:01:56 435.465 / 435.565
DELFI C3 05 Dec 09:57:47 10:01:45 73° 284° (WNW) 10:05:42 145.870
AIST 2 05 Dec 09:57:58 09:59:39 12° 320° (NW) 10:01:21 435.215
FUNcube-1 05 Dec 09:59:54 10:03:22 25° 291° (WNW) 10:06:47 145.935
CUBEBUG 2 05 Dec 10:03:09 10:03:36 10° 299° (WNW) 10:04:04 437.445
NANOSAT C BR1 05 Dec 10:10:06 10:13:39 26° 69° (ENE) 10:17:12 145.865
PCSat 05 Dec 10:13:02 10:16:03 15° 104° (ESE) 10:19:04 145.827
QB50P2 05 Dec 10:14:43 10:18:35 34° 71° (ENE) 10:22:28 145.880/145.840
POLYITAN 1 05 Dec 10:15:20 10:19:09 32° 70° (ENE) 10:23:00 437.675
DANDE 05 Dec 10:19:02 10:24:01 86° 102° (ESE) 10:27:44 436.750
QB50P1 05 Dec 10:28:22 10:32:26 44° 73° (ENE) 10:36:32 145.935-145.965
JAS-2 05 Dec 10:28:59 10:35:35 76° 75° (ENE) 10:41:25 435.910
DUCHIFAT 1 05 Dec 10:32:13 10:36:13 42° 72° (ENE) 10:40:15 145.980
Oscar 11 05 Dec 10:32:58 10:34:55 13° 296° (WNW) 10:36:52 145.826/435.025
AO-85 05 Dec 10:34:58 10:38:45 40° 53° (NE) 10:42:24 145.980
POPSAT HIP 1 05 Dec 10:49:34 10:53:50 78° 75° (ENE) 10:58:08 437.405
ESTCUBE 1 05 Dec 10:50:35 10:54:29 28° 96° (E) 10:58:22 437.505/2401.250
UNISAT 6 05 Dec 11:01:29 11:01:56 10° 271° (W) 11:02:23 437.425
AISAT 05 Dec 11:01:41 11:04:23 16° 92° (E) 11:07:05 437.250
RS-15 05 Dec 11:01:43 11:11:10 25° 340° (NNW) 11:20:48 29.354- 29.394
HUMSAT D 05 Dec 11:27:58 11:30:13 15° 295° (WNW) 11:32:28 437.325/437.525
CUBEBUG 1 05 Dec 11:28:44 11:33:00 44° 99° (E) 11:37:14 437.445
BUGSAT 1 05 Dec 11:32:16 11:36:29 78° 74° (ENE) 11:40:44 437.445
50 SAT 05 Dec 11:32:34 11:35:29 23° 96° (E) 11:38:23 437.505
GONETS M04 05 Dec 11:34:12 11:42:49 60° 78° (ENE) 11:51:25
VELOX 1 05 Dec 11:37:30 11:41:38 36° 98° (E) 11:45:45 145.980
Cosmos 2499 05 Dec 11:43:50 11:52:30 75° 81° (E) 12:00:30 435.465 / 435.565
NANOSAT C BR1 05 Dec 11:45:43 11:49:17 25° 265° (W) 11:52:51 145.865
Gurwin Techsat 1B 05 Dec 11:45:52 11:48:46 15° 61° (ENE) 11:51:40 435.225
QB50P2 05 Dec 11:51:18 11:54:26 20° 266° (W) 11:57:36 145.880/145.840
POLYITAN 1 05 Dec 11:51:44 11:54:58 21° 266° (W) 11:58:14 437.675
PCSat 05 Dec 11:53:25 11:58:47 70° 300° (WNW) 12:04:13 145.827
DX 1 05 Dec 11:53:44 11:57:32 28° 97° (E) 12:01:19 434.975-435.025
Oscar 19 05 Dec 11:54:09 11:58:40 33° 68° (ENE) 12:03:13 437.125/150
UKube-1 05 Dec 12:02:32 12:06:11 26° 96° (E) 12:09:49 .
QB50P1 05 Dec 12:05:57 12:08:25 15° 268° (W) 12:10:54 145.935-145.965
DUCHIFAT 1 05 Dec 12:09:28 12:12:04 16° 267° (W) 12:14:42 145.980
SPROUT 05 Dec 12:16:25 12:20:43 67° 102° (ESE) 12:24:57 437.525
AO-85 05 Dec 12:16:26 12:18:45 15° 250° (WSW) 12:21:04 145.980
JAS-2 05 Dec 12:17:18 12:21:01 16° 268° (W) 12:24:31 435.910
ESTCUBE 1 05 Dec 12:27:26 12:31:11 27° 292° (WNW) 12:34:57 437.505/2401.250
AISAT 05 Dec 12:36:47 12:41:04 46° 288° (WNW) 12:45:21 437.250
CUBEBUG 1 05 Dec 13:06:01 13:08:55 17° 295° (WNW) 13:11:48 437.445
50 SAT 05 Dec 13:06:02 13:08:38 19° 291° (WNW) 13:11:14 437.505
VELOX 1 05 Dec 13:14:31 13:17:50 21° 294° (WNW) 13:21:09 145.980
RS-15 05 Dec 13:20:27 13:29:46 23° 16° (NNE) 13:39:02 29.354- 29.394
Gurwin Techsat 1B 05 Dec 13:22:45 13:28:04 73° 258° (WSW) 13:33:24 435.225
DX 1 05 Dec 13:30:00 13:33:36 25° 292° (WNW) 13:37:11 434.975-435.025
M-CUBED/EXP-1 PRIME 05 Dec 13:30:59 13:33:10 13° 95° (E) 13:35:20 437.505
GONETS M04 05 Dec 13:32:00 13:38:59 28° 277° (W) 13:46:01
Oscar 19 05 Dec 13:33:34 13:37:57 29° 264° (W) 13:42:24 437.125/150
UKube-1 05 Dec 13:38:30 13:42:09 27° 292° (WNW) 13:45:46 .
Cosmos 2499 05 Dec 13:38:36 13:44:32 21° 281° (W) 13:50:14 435.465 / 435.565
PCSat 05 Dec 13:40:52 13:43:12 13° 320° (NW) 13:45:34 145.827
TISAT 1 05 Dec 13:40:56 13:45:11 87° 284° (WNW) 13:49:23 437.305
ITUPSAT 1 05 Dec 13:45:21 13:48:41 19° 93° (E) 13:51:59 437.325
AO-7 05 Dec 13:46:37 13:54:15 43° 62° (ENE) 14:01:57 29.400- 29.500
BEESAT 3 05 Dec 13:48:56 13:52:54 61° 56° (ENE) 13:56:49 437.485
SPROUT 05 Dec 13:54:41 13:56:03 11° 298° (WNW) 13:57:24 437.525
ITAMSAT 1 05 Dec 13:59:24 14:04:31 59° 72° (ENE) 14:09:39 435.822/435.867
BEESAT 2 05 Dec 14:16:33 14:20:32 54° 56° (NE) 14:24:28 435.950
MOZHAYETS 4 05 Dec 14:31:12 14:33:21 13° 91° (E) 14:35:31
SWISSCUBE 05 Dec 14:50:37 14:55:23 80° 285° (WNW) 15:00:07 437.505
AUBIESAT-1 05 Dec 14:51:40 14:56:18 80° 108° (ESE) 15:00:42 437.475
BEESAT 05 Dec 14:54:44 14:59:31 82° 285° (WNW) 15:04:15 436.000
M-CUBED/EXP-1 PRIME 05 Dec 15:03:22 15:08:01 64° 291° (WNW) 15:12:29 437.505
KKS-1 05 Dec 15:06:26 15:08:19 12° 91° (E) 15:10:12 437.445
HORYU 2 05 Dec 15:18:32 15:20:44 14° 63° (ENE) 15:22:56 437.375
ITUPSAT 1 05 Dec 15:22:11 15:26:42 44° 289° (WNW) 15:31:11 437.325
BEESAT 3 05 Dec 15:28:53 15:29:59 11° 252° (WSW) 15:31:04 437.485
O/OREOS (USA 219) 05 Dec 15:30:27 15:34:41 38° 105° (ESE) 15:38:54 437.305
ISS 05 Dec 15:32:22 15:35:02 23° 133° (SE) 15:37:42 145.825
RS-15 05 Dec 15:34:05 15:46:10 53° 47° (NE) 15:57:51 29.354- 29.394
AO-7 05 Dec 15:39:13 15:46:58 43° 260° (W) 15:54:48 29.400- 29.500
ITAMSAT 1 05 Dec 15:41:06 15:44:20 16° 268° (W) 15:47:34 435.822/435.867
GOMX 1 05 Dec 15:48:33 15:51:00 14° 61° (ENE) 15:53:31 467.674
BEESAT 2 05 Dec 15:56:04 15:57:50 13° 251° (WSW) 15:59:35 435.950
NOAA 15 05 Dec 15:56:45 15:59:10 13° 60° (ENE) 16:01:36 137.62
Cubesat XI-IV 05 Dec 15:57:58 16:00:09 13° 59° (ENE) 16:02:20 437.490
MOZHAYETS 4 05 Dec 16:06:24 16:10:51 57° 287° (WNW) 16:15:19
BRITE-PL 05 Dec 16:07:38 16:11:45 49° 72° (ENE) 16:16:09 437.365/2234.400
CUBESAT XI-V 05 Dec 16:08:02 16:11:35 21° 94° (E) 16:15:06 437.345
LilacSat-2 05 Dec 16:27:21 16:29:46 16° 67° (ENE) 16:32:10 437.200
AUBIESAT-1 05 Dec 16:28:11 16:29:59 12° 304° (NW) 16:31:46 437.475
AIST 2 05 Dec 16:38:22 16:42:26 45° 54° (NE) 16:46:30 435.215
KKS-1 05 Dec 16:40:49 16:45:14 59° 287° (WNW) 16:49:37 437.445
STARS 05 Dec 16:48:18 16:52:45 77° 104° (ESE) 16:57:09 437.465
HO-68 05 Dec 16:49:01 16:51:01 11° 50° (NE) 16:53:00 435.675
HORYU 2 05 Dec 16:52:20 16:56:46 60° 259° (WSW) 17:01:13 437.375
ISS 05 Dec 17:08:16 17:11:23 38° 329° (NNW) 17:14:31 145.825
CUTE-I 05 Dec 17:08:27 17:13:40 55° 71° (ENE) 17:18:54 437.470
O/OREOS (USA 219) 05 Dec 17:10:43 17:14:12 21° 302° (WNW) 17:17:42 437.305
NOAA 18 05 Dec 17:13:10 17:18:17 41° 69° (ENE) 17:23:28 137.9125
GOMX 1 05 Dec 17:23:58 17:28:26 61° 260° (W) 17:33:16 467.674
CINEMA 3 05 Dec 17:24:00 17:26:54 16° 63° (ENE) 17:29:52 145.822/145.860
NOAA 15 05 Dec 17:33:00 17:38:14 81° 256° (WSW) 17:43:31 137.62
Cubesat XI-IV 05 Dec 17:34:02 17:39:25 89° 252° (WSW) 17:44:51 437.490
Cosmos 2491 05 Dec 17:34:19 17:42:46 51° 76° (ENE) 17:51:10 435.465 / 435.565
DOVE 4 05 Dec 17:36:42 17:41:26 75° 75° (ENE) 17:46:29 437.250
CUTE 1.7 + AOD 2 05 Dec 17:42:12 17:43:27 11° 63° (ENE) 17:44:41 437.475
CUBESAT XI-V 05 Dec 17:44:45 17:49:02 37° 289° (WNW) 17:53:19 437.345
RS-15 05 Dec 17:47:02 17:58:39 51° 250° (WSW) 18:09:52 29.354- 29.394
BRITE-PL 05 Dec 17:48:33 17:50:40 13° 271° (W) 17:52:50 437.365/2234.400
CANX-2 05 Dec 17:58:05 18:01:07 20° 68° (ENE) 18:04:11 2200.000
LilacSat-2 05 Dec 18:00:14 18:03:46 34° 262° (W) 18:07:19 437.200
YUBILEINY 05 Dec 18:01:49 18:09:12 32° 84° (E) 18:16:36 435.215
AIST 2 05 Dec 18:17:50 18:20:34 17° 250° (WSW) 18:23:17 435.215
SEEDS 05 Dec 18:24:19 18:27:33 22° 68° (ENE) 18:30:46 437.485
STARS 05 Dec 18:27:36 18:28:25 10° 299° (WNW) 18:29:16 437.465
HO-68 05 Dec 18:30:16 18:37:16 60° 69° (ENE) 18:44:18 435.675
UWE-3 05 Dec 18:30:24 18:32:01 12° 62° (ENE) 18:33:38 435.000/436.395/437.385
COMPASS 1 05 Dec 18:35:56 18:38:55 20° 68° (ENE) 18:41:55 437.405
AIST 1 05 Dec 18:43:38 18:46:13 16° 86° (E) 18:48:49
ISS 05 Dec 18:46:56 18:48:36 13° 349° (NNW) 18:50:15 145.825
CUTE-I 05 Dec 18:50:22 18:54:01 18° 268° (W) 18:57:41 437.470
NOAA 18 05 Dec 18:54:27 18:59:03 27° 265° (W) 19:03:40 137.9125
CINEMA 3 05 Dec 18:58:36 19:03:27 62° 260° (W) 19:08:27 145.822/145.860
PCSat 05 Dec 19:00:11 19:03:04 14° 41° (NE) 19:05:57 145.827
SO-50 05 Dec 19:05:37 19:09:13 21° 111° (ESE) 19:12:48 436.795
ZACube-1 05 Dec 19:10:49 19:13:59 19° 66° (ENE) 19:17:07 437.345
CUTE 1.7 + AOD 2 05 Dec 19:14:32 19:18:43 64° 259° (W) 19:22:55 437.475
DOVE 4 05 Dec 19:18:21 19:19:45 11° 273° (W) 19:21:11 437.250
FUNcube-1 05 Dec 19:18:33 19:21:54 21° 67° (ENE) 19:25:14 145.935
CUBEBUG 2 05 Dec 19:19:45 19:24:25 58° 74° (ENE) 19:29:05 437.445
Cubesat XI-IV 05 Dec 19:19:52 19:20:10 10° 272° (W) 19:20:29 437.490
Cosmos 2504 05 Dec 19:24:58 19:32:57 54° 89° (E) 19:41:24 435.465 / 435.565
Cosmos 2491 05 Dec 19:31:45 19:39:12 33° 276° (W) 19:46:40 435.465 / 435.565
STRAND 1 05 Dec 19:32:55 19:38:03 89° 285° (WNW) 19:43:09 437.568
CANX-2 05 Dec 19:32:55 19:36:45 33° 263° (W) 19:40:35 2200.000
AAUSAT CUBESAT 2 05 Dec 19:40:12 19:44:18 84° 75° (ENE) 19:48:26 437.432
Oscar 11 05 Dec 19:48:58 19:52:59 39° 72° (ENE) 19:57:01 145.826/435.025
YUBILEINY 05 Dec 19:57:07 20:05:32 53° 283° (WNW) 20:14:04 435.215
SEEDS 05 Dec 19:59:27 20:03:05 29° 264° (W) 20:06:43 437.485
UWE-3 05 Dec 20:03:10 20:07:50 76° 258° (WSW) 20:12:29 435.000/436.395/437.385
COMPASS 1 05 Dec 20:10:33 20:14:15 32° 263° (W) 20:17:58 437.405
CUSAT 1 05 Dec 20:13:31 20:17:10 67° 80° (E) 20:21:58 437.405
AIST 1 05 Dec 20:19:23 20:23:25 39° 282° (WNW) 20:27:32
HO-68 05 Dec 20:19:42 20:25:22 25° 266° (W) 20:31:05 435.675
ISS 05 Dec 20:24:45 20:26:14 12° 9° (N) 20:27:43 145.825
HUMSAT D 05 Dec 20:41:36 20:45:13 28° 70° (ENE) 20:48:49 437.325/437.525
PCSat 05 Dec 20:41:53 20:47:21 81° 62° (ENE) 20:52:46 145.827
DELFI C3 05 Dec 20:42:25 20:46:14 54° 74° (ENE) 20:50:05 145.870
SO-50 05 Dec 20:44:50 20:49:24 44° 307° (NW) 20:53:56 436.795
ZACube-1 05 Dec 20:45:36 20:49:56 42° 262° (W) 20:54:14 437.345
PRISM 05 Dec 20:47:00 20:50:52 36° 98° (E) 20:54:43 437.425
FUNcube-1 05 Dec 20:53:40 20:57:53 37° 262° (W) 21:02:04 145.935
DANDE 05 Dec 20:56:25 20:59:06 38° 80° (E) 21:02:18 436.750
CUBEBUG 2 05 Dec 20:58:51 21:01:21 14° 269° (W) 21:03:52 437.445
UNISAT 6 05 Dec 21:13:56 21:16:38 16° 92° (E) 21:19:19 437.425
STRAND 1 05 Dec 21:15:00 21:16:25 11° 301° (WNW) 21:17:51 437.568
Cosmos 2504 05 Dec 21:19:20 21:26:41 33° 290° (WNW) 21:34:25 435.465 / 435.565
Oscar 11 05 Dec 21:26:26 21:29:16 17° 267° (W) 21:32:07 145.826/435.025
TIGRISAT 05 Dec 21:43:05 21:47:00 31° 96° (E) 21:50:49 435.000
ANTELSAT 05 Dec 21:44:23 21:48:25 34° 97° (E) 21:52:19 437.575/2403.000
ESTCUBE 1 05 Dec 21:49:41 21:53:17 24° 68° (ENE) 21:56:54 437.505/2401.250
AISAT 05 Dec 21:59:06 22:01:19 14° 63° (ENE) 22:03:34 437.250
ISS 05 Dec 22:00:29 22:03:32 32° 29° (NNE) 22:06:33 145.825
HUMSAT D 05 Dec 22:17:28 22:20:48 22° 265° (W) 22:24:08 437.325/437.525
DELFI C3 05 Dec 22:21:18 22:21:22 10° 270° (W) 22:21:25 145.870
PRISM 05 Dec 22:23:01 22:25:53 18° 294° (WNW) 22:28:45 437.425
CUBEBUG 1 05 Dec 22:23:59 22:27:53 33° 70° (ENE) 22:31:50 437.445
PCSat 05 Dec 22:27:41 22:29:59 13° 257° (WSW) 22:32:17 145.827
Cosmos 2499 05 Dec 22:33:37 22:34:55 10° 72° (ENE) 22:36:15 435.465 / 435.565
VELOX 1 05 Dec 22:34:09 22:37:58 30° 69° (ENE) 22:41:50 145.980
POPSAT HIP 1 05 Dec 22:36:46 22:38:45 13° 91° (E) 22:40:42 437.405
GONETS M04 05 Dec 22:44:49 22:47:29 12° 74° (ENE) 22:50:09
DX 1 05 Dec 22:48:49 22:52:16 23° 67° (ENE) 22:55:44 434.975-435.025
UNISAT 6 05 Dec 22:49:24 22:53:35 42° 288° (WNW) 22:57:39 437.425
UKube-1 05 Dec 22:56:42 22:59:56 21° 67° (ENE) 23:03:11 .
SPROUT 05 Dec 23:08:54 23:13:00 45° 73° (ENE) 23:17:07 437.525
BUGSAT 1 05 Dec 23:16:58 23:18:26 12° 91° (E) 23:19:53 437.445
TIGRISAT 05 Dec 23:20:06 23:23:30 22° 293° (WNW) 23:26:51 435.000
ANTELSAT 05 Dec 23:21:37 23:24:52 21° 294° (WNW) 23:28:04 437.575/2403.000
JAS-2 05 Dec 23:23:31 23:28:42 66° 102° (ESE) 23:34:07 435.910
ESTCUBE 1 05 Dec 23:26:01 23:29:56 30° 263° (W) 23:33:54 437.505/2401.250
NANOSAT C BR1 05 Dec 23:29:51 23:34:00 51° 100° (E) 23:38:04 145.865
AISAT 05 Dec 23:32:56 23:37:17 57° 259° (W) 23:41:41 437.250
QB50P2 05 Dec 23:35:24 23:39:38 70° 102° (ESE) 23:43:50 145.880/145.840
POLYITAN 1 05 Dec 23:35:57 23:40:11 66° 101° (ESE) 23:44:21 437.675
ISS 05 Dec 23:37:03 23:39:59 29° 225° (SW) 23:42:54 145.825
50 SAT 05 Dec 23:39:36 23:43:00 51° 259° (W) 23:46:26 437.505
QB50P1 05 Dec 23:49:03 23:53:20 87° 279° (W) 23:57:32 145.935-145.965
DUCHIFAT 1 05 Dec 23:52:07 23:56:21 86° 99° (E) 00:00:33 145.980
CUBEBUG 1 06 Dec 00:00:57 00:04:13 21° 266° (W) 00:07:32 437.445
Oscar 19 06 Dec 00:08:20 00:10:03 11° 89° (E) 00:11:45 437.125/150
PHONESAT 2.4 06 Dec 00:09:55 00:12:11 25° 155° (SSE) 00:14:28 2401.200-2431.200
POPSAT HIP 1 06 Dec 00:10:41 00:14:48 50° 287° (WNW) 00:18:52 437.405
VELOX 1 06 Dec 00:10:51 00:14:25 24° 265° (W) 00:18:00 145.980
M-CUBED/EXP-1 PRIME 06 Dec 00:16:15 00:18:35 15° 57° (ENE) 00:21:00 437.505
Cosmos 2499 06 Dec 00:17:45 00:26:05 63° 92° (E) 00:34:49 435.465 / 435.565
SWISSCUBE 06 Dec 00:21:54 00:23:46 12° 61° (ENE) 00:25:38 437.505
DX 1 06 Dec 00:24:27 00:28:17 30° 263° (W) 00:32:09 434.975-435.025
BEESAT 06 Dec 00:26:02 00:27:50 12° 61° (ENE) 00:29:38 436.000
TISAT 1 06 Dec 00:31:23 00:35:34 62° 74° (ENE) 00:39:47 437.305
UKube-1 06 Dec 00:31:51 00:35:45 33° 262° (W) 00:39:41 .
GONETS M04 06 Dec 00:33:56 00:42:35 71° 93° (E) 00:51:13
SPROUT 06 Dec 00:46:39 00:49:08 15° 268° (W) 00:51:38 437.525
AO-85 06 Dec 00:49:08 00:52:33 19° 111° (ESE) 00:55:49 145.980
BUGSAT 1 06 Dec 00:50:01 00:54:08 54° 286° (WNW) 00:58:10 437.445
ITUPSAT 1 06 Dec 00:51:31 00:55:06 21° 65° (ENE) 00:58:41 437.325
NANOSAT C BR1 06 Dec 01:07:04 01:09:15 14° 296° (WNW) 01:11:25 145.865
JAS-2 06 Dec 01:10:29 01:13:18 15° 298° (WNW) 01:16:09 435.910
QB50P2 06 Dec 01:13:54 01:14:50 11° 298° (WNW) 01:15:45 145.880/145.840
POLYITAN 1 06 Dec 01:14:09 01:15:23 11° 298° (WNW) 01:16:37 437.675
MOZHAYETS 4 06 Dec 01:33:04 01:35:07 13° 63° (ENE) 01:37:10
AUBIESAT-1 06 Dec 01:36:13 01:40:19 85° 71° (ENE) 01:44:44 437.475
Gurwin Techsat 1B 06 Dec 01:39:42 01:44:50 47° 99° (E) 01:49:56 435.225
O/OREOS (USA 219) 06 Dec 01:40:47 01:45:15 66° 66° (ENE) 01:49:41 437.305
PHONESAT 2.4 06 Dec 01:44:35 01:47:15 88° 169° (SSE) 01:49:55 2401.200-2431.200
Oscar 19 06 Dec 01:44:43 01:49:56 80° 284° (WNW) 01:55:07 437.125/150
M-CUBED/EXP-1 PRIME 06 Dec 01:48:32 01:52:30 55° 255° (WSW) 01:56:49 437.505
AO-7 06 Dec 01:52:32 01:54:53 11° 87° (E) 01:57:14 29.400- 29.500
SWISSCUBE 06 Dec 01:56:08 02:00:54 76° 258° (WSW) 02:05:41 437.505
BEESAT 06 Dec 02:00:11 02:04:57 77° 258° (WSW) 02:09:45 436.000
KKS-1 06 Dec 02:04:38 02:06:13 12° 62° (ENE) 02:07:50 437.445
TISAT 1 06 Dec 02:10:40 02:11:34 11° 270° (W) 02:12:28 437.305
Cosmos 2499 06 Dec 02:12:35 02:19:48 29° 292° (WNW) 02:27:17 435.465 / 435.565
ITAMSAT 1 06 Dec 02:13:42 02:17:36 21° 94° (E) 02:21:29 435.822/435.867
AO-85 06 Dec 02:27:53 02:32:42 52° 305° (NW) 02:37:10 145.980
ITUPSAT 1 06 Dec 02:28:09 02:32:39 40° 261° (W) 02:37:10 437.325
GONETS M04 06 Dec 02:33:25 02:40:11 24° 293° (WNW) 02:46:58
MOZHAYETS 4 06 Dec 03:07:09 03:11:43 66° 259° (W) 03:16:17
CUBESAT XI-V 06 Dec 03:11:06 03:14:21 20° 66° (ENE) 03:17:38 437.345
PHONESAT 2.4 06 Dec 03:19:52 03:22:31 88° 1° (N) 03:25:11 2401.200-2431.200
Gurwin Techsat 1B 06 Dec 03:20:25 03:24:26 22° 296° (WNW) 03:28:27 435.225
O/OREOS (USA 219) 06 Dec 03:23:03 03:24:01 11° 263° (W) 03:24:58 437.305
Oscar 19 06 Dec 03:27:54 03:28:22 10° 302° (WNW) 03:28:50 437.125/150
SO-50 06 Dec 03:37:11 03:40:22 18° 43° (NE) 03:43:29 436.795
KKS-1 06 Dec 03:37:44 03:42:11 71° 259° (WSW) 03:46:40 437.445
AO-7 06 Dec 03:40:39 03:49:02 69° 105° (ESE) 03:57:21 29.400- 29.500
BEESAT 3 06 Dec 03:41:08 03:42:17 11° 108° (ESE) 03:43:26 437.485
STARS 06 Dec 03:43:51 03:48:12 62° 74° (ENE) 03:52:36 437.465
ITAMSAT 1 06 Dec 03:52:21 03:57:15 44° 290° (WNW) 04:02:08 435.822/435.867
BEESAT 2 06 Dec 04:10:42 04:11:23 10° 108° (ESE) 04:12:04 435.950
BRITE-PL 06 Dec 04:12:31 04:16:42 22° 93° (E) 04:20:57 437.365/2234.400
YUBILEINY 06 Dec 04:13:23 04:18:03 15° 60° (ENE) 04:22:42 435.215
HORYU 2 06 Dec 04:44:17 04:47:59 26° 96° (E) 04:51:39 437.375
CUBESAT XI-V 06 Dec 04:47:07 04:51:26 40° 262° (W) 04:55:46 437.345
PHONESAT 2.4 06 Dec 04:55:16 04:57:37 28° 203° (SSW) 04:59:56 2401.200-2431.200
STRAND 1 06 Dec 05:11:39 05:14:34 15° 62° (ENE) 05:17:29 437.568
BEESAT 3 06 Dec 05:15:32 05:19:22 58° 304° (NW) 05:23:17 437.485
SO-50 06 Dec 05:16:46 05:21:12 58° 242° (WSW) 05:25:34 436.795
Cosmos 2504 06 Dec 05:19:44 05:25:45 20° 63° (ENE) 05:31:33 435.465 / 435.565
STARS 06 Dec 05:23:26 05:24:56 12° 269° (W) 05:26:27 437.465
GOMX 1 06 Dec 05:25:48 05:31:03 45° 98° (E) 05:36:17 467.674
CUTE-I 06 Dec 05:26:51 05:30:59 22° 94° (E) 05:35:05 437.470
LilacSat-2 06 Dec 05:34:16 05:37:22 24° 95° (E) 05:40:25 437.200
AO-7 06 Dec 05:34:23 05:41:07 28° 304° (NW) 05:47:51 29.400- 29.500
DOVE 4 06 Dec 05:36:48 05:41:06 25° 93° (E) 05:45:16 437.250
NOAA 18 06 Dec 05:36:51 05:40:28 17° 92° (E) 05:44:02 137.9125
BEESAT 2 06 Dec 05:44:42 05:48:36 63° 304° (WNW) 05:52:34 435.950
NOAA 15 06 Dec 05:48:54 05:53:52 40° 99° (E) 05:58:48 137.62
BRITE-PL 06 Dec 05:50:04 05:55:18 51° 288° (WNW) 06:00:46 437.365/2234.400
Cubesat XI-IV 06 Dec 05:52:13 05:57:11 38° 98° (E) 06:02:07 437.490
RS-15 06 Dec 05:57:56 06:07:37 32° 103° (ESE) 06:17:38 29.354- 29.394
YUBILEINY 06 Dec 06:07:36 06:16:29 76° 82° (E) 06:25:18 435.215
HORYU 2 06 Dec 06:20:41 06:24:28 28° 292° (WNW) 06:28:12 437.375
AIST 1 06 Dec 06:26:41 06:30:54 43° 79° (ENE) 06:35:06
Cosmos 2491 06 Dec 06:34:11 06:42:46 61° 91° (E) 06:51:19 435.465 / 435.565
AIST 2 06 Dec 06:38:50 06:39:14 10° 107° (ESE) 06:39:38 435.215
STRAND 1 06 Dec 06:48:03 06:53:10 67° 259° (WSW) 06:58:18 437.568
